Location: La Tine
(46.4708°N, 7.0525°E)
Time: 11:02:34
(UTC+00:00)

Cosmos 1844 - Pass Details

Date: 18 September 2020
Orbit: 824 x 866 km, 70.9° (Epoch: 24 October)

Event Time Altitude Azimuth Distance (km) Brightness Sun altitude
Rises 19:25:52 0° 188° (S) 3,413 6.7 -19.0°
Reaches altitude 10° 19:28:23 10° 183° (S) 2,475 5.9 -19.4°
Maximum altitude 19:33:50 50° 109° (ESE) 1,074 3.8 -20.3°
Drops below altitude 10° 19:39:16 10° 36° (NE) 2,464 6.0 -21.1°
Sets 19:41:46 0° 31° (NNE) 3,397 6.8 -21.5°
